TimePDT,TemperatureF,Dew PointF,Humidity,Sea Level PressureIn,VisibilityMPH,Wind Direction,Wind SpeedMPH,Gust SpeedMPH,PrecipitationIn,Events,Conditions,WindDirDegrees,DateUTC
12:56 AM,50.0,30.0,46,30.09,5.0,SSE,4.6,-,N/A,,Haze,160,2012-09-18 07:56:00
1:56 AM,45.0,28.9,53,30.09,7.0,Calm,Calm,-,N/A,,Clear,0,2012-09-18 08:56:00
2:56 AM,46.9,28.9,50,30.09,8.0,South,5.8,-,N/A,,Clear,170,2012-09-18 09:56:00
3:56 AM,39.9,27.0,60,30.10,8.0,Calm,Calm,-,N/A,,Clear,0,2012-09-18 10:56:00
4:56 AM,39.9,26.1,58,30.10,9.0,SE,3.5,-,N/A,,Clear,130,2012-09-18 11:56:00
5:56 AM,42.1,27.0,55,30.11,10.0,Calm,Calm,-,N/A,,Smoke,0,2012-09-18 12:56:00
6:56 AM,45.0,26.1,48,30.11,10.0,SSE,4.6,-,N/A,,Smoke,160,2012-09-18 13:56:00
7:56 AM,52.0,26.1,37,30.12,10.0,SSE,3.5,-,N/A,,Smoke,160,2012-09-18 14:56:00
8:56 AM,61.0,27.0,27,30.12,10.0,Calm,Calm,-,N/A,,Smoke,0,2012-09-18 15:56:00
9:56 AM,68.0,27.0,21,30.11,10.0,Calm,Calm,-,N/A,,Smoke,0,2012-09-18 16:56:00
10:56 AM,75.9,25.0,15,30.09,10.0,Calm,Calm,-,N/A,,Smoke,0,2012-09-18 17:56:00
11:56 AM,82.4,23.0,11,30.12,9.0,Calm,Calm,-,N/A,,Smoke,0,2012-09-18 18:56:00
12:56 PM,88.0,25.0,10,30.04,10.0,NNW,5.8,-,N/A,,Smoke,330,2012-09-18 19:56:00
1:56 PM,87.1,28.0,12,30.02,10.0,NNW,9.2,-,N/A,,Smoke,340,2012-09-18 20:56:00
2:56 PM,88.0,27.0,11,30.01,10.0,NNW,11.5,-,N/A,,Smoke,340,2012-09-18 21:56:00
3:56 PM,87.1,32.0,14,30.01,9.0,NNW,9.2,-,N/A,,Smoke,340,2012-09-18 22:56:00
4:56 PM,84.9,30.9,14,30.01,9.0,NW,9.2,-,N/A,,Smoke,310,2012-09-18 23:56:00
5:56 PM,79.0,30.9,17,30.01,9.0,WNW,5.8,-,N/A,,Smoke,300,2012-09-19 00:56:00
6:56 PM,73.9,32.0,21,30.02,9.0,Calm,Calm,-,N/A,,Smoke,0,2012-09-19 01:56:00
7:56 PM,70.0,30.9,24,30.04,10.0,West,3.5,-,N/A,,Smoke,260,2012-09-19 02:56:00
8:56 PM,64.0,30.0,28,30.05,6.0,WNW,3.5,-,N/A,,Haze,290,2012-09-19 03:56:00
9:56 PM,61.0,32.0,34,30.06,4.0,Calm,Calm,-,N/A,,Haze,0,2012-09-19 04:56:00
10:56 PM,55.0,32.0,42,30.06,4.0,SSE,5.8,-,N/A,,Haze,160,2012-09-19 05:56:00
11:56 PM,52.0,33.1,49,30.07,4.0,Calm,Calm,-,0.00,,Haze,0,2012-09-19 06:56:00